Location: Caracas
(10.5033°N, 66.8422°W)
Time: 22:33:51
(UTC-04:00)

Vanguard 1 - Visible Passes

Search period start: 18 June 2018 00:00
Search period end: 28 June 2018 00:00
Orbit: 650 x 3833 km, 34.3° (Epoch: 17 June)

Date Brightness Start Highest point End Pass type
(mag) Time Alt. Az. Time Alt. Az. Time Alt. Az.
18 Jun 10.8 04:37:44 32° SW 04:41:39 82° SE 04:54:24 10° ENE visible
19 Jun 12.3 02:44:57 17° ESE 02:44:57 17° ESE 02:48:01 10° E visible
19 Jun 11.0 04:57:40 22° WSW 05:02:47 72° NNW 05:16:03 10° NE visible
20 Jun 11.6 03:04:51 30° ESE 03:04:51 30° ESE 03:10:48 10° ENE visible
20 Jun 11.5 05:17:34 13° W 05:24:13 53° NNW 05:37:35 10° NE visible
21 Jun 10.8 03:24:45 51° ESE 03:24:45 51° ESE 03:32:52 10° ENE visible
21 Jun 12.0 05:38:29 10° W 05:45:55 41° NNW 05:59:07 10° NE visible
22 Jun 10.1 03:44:38 87° SSE 03:44:40 87° SSE 03:54:32 10° NE visible
23 Jun 10.3 04:04:30 54° WNW 04:05:47 63° NNW 04:15:58 10° NE visible
24 Jun 12.6 02:11:38 12° E 02:11:38 12° E 02:12:17 10° ENE visible
24 Jun 11.0 04:24:20 30° WNW 04:27:10 44° NNW 04:37:16 10° NE visible
25 Jun 12.1 02:31:27 21° ENE 02:31:27 21° ENE 02:34:09 10° ENE visible
25 Jun 11.7 04:44:10 16° WNW 04:48:48 33° NNW 04:58:33 10° NE visible
26 Jun 11.5 02:51:16 32° NE 02:51:16 32° NE 02:55:36 10° NE visible
26 Jun 12.1 05:04:43 10° WNW 05:10:39 26° N 05:19:57 10° NE visible
27 Jun 11.1 03:11:04 40° NNE 03:11:04 40° NNE 03:16:47 10° NE visible
27 Jun 12.4 05:26:42 10° NW 05:32:40 22° N 05:41:38 10° NE visible
